| time (UTC) | temp C | wind direction | speed KPH | gust KPH | rain 1hr cm | rain 24hr cm | rain mn cm | humidity % | barometer mb |
| 20260505160636 | 17 | 0.0 | 0.0 | 0.00 | 0.00 | 0.00 | 39 | 948.1 | |
| 20260505160336 | 17 | 0.0 | 0.0 | 0.00 | 0.00 | 0.00 | 39 | 948.1 | |
| 20260505153335 | 16 | 0.0 | 0.0 | 0.00 | 0.00 | 0.00 | 40 | 948.2 | |
| 20260505153035 | 16 | 0.0 | 0.0 | 0.00 | 0.00 | 0.00 | 40 | 948.2 | |
| 20260505152736 | 16 | 0.0 | 0.0 | 0.00 | 0.00 | 0.00 | 40 | 948.2 | |
| 20260505152435 | 16 | 0.0 | 0.0 | 0.00 | 0.00 | 0.00 | 40 | 948.2 | |
| 20260505151836 | 16 | 0.0 | 0.0 | 0.00 | 0.00 | 0.00 | 40 | 948.2 | |
| 20260505151536 | 16 | 0.0 | 0.0 | 0.00 | 0.00 | 0.00 | 40 | 948.2 | |
| 20260505150336 | 17 | 0.0 | 0.0 | 0.00 | 0.00 | 0.00 | 39 | 948.0 | |
| 20260505140635 | 18 | 0.0 | 0.0 | 0.00 | 0.00 | 0.00 | 38 | 948.0 | |
| 20260505140336 | 18 | 0.0 | 0.0 | 0.00 | 0.00 | 0.00 | 38 | 948.0 | |
| 20260505124835 | 17 | 0.0 | 0.0 | 0.00 | 0.00 | 0.00 | 40 | 949.0 | |
| 20260505124536 | 17 | 0.0 | 0.0 | 0.00 | 0.00 | 0.00 | 40 | 949.0 | |
| 20260505124236 | 17 | 0.0 | 0.0 | 0.00 | 0.00 | 0.00 | 40 | 949.0 | |
| 20260505123936 | 17 | 0.0 | 0.0 | 0.00 | 0.00 | 0.00 | 40 | 949.0 | |
| 20260505123635 | 17 | 0.0 | 0.0 | 0.00 | 0.00 | 0.00 | 40 | 949.0 | |
| 20260505123336 | 18 | 0.0 | 0.0 | 0.00 | 0.00 | 0.00 | 39 | 949.2 | |
| 20260505123036 | 18 | 0.0 | 0.0 | 0.00 | 0.00 | 0.00 | 39 | 949.2 | |
| 20260505122736 | 18 | 0.0 | 0.0 | 0.00 | 0.00 | 0.00 | 39 | 949.2 | |
| 20260505122436 | 18 | 0.0 | 0.0 | 0.00 | 0.00 | 0.00 | 37 | 949.0 | |
| 20260505122136 | 18 | 0.0 | 0.0 | 0.00 | 0.00 | 0.00 | 37 | 949.0 | |
| 20260505121836 | 18 | 0.0 | 0.0 | 0.00 | 0.00 | 0.00 | 37 | 949.0 | |
| 20260505121536 | 18 | 0.0 | 0.0 | 0.00 | 0.00 | 0.00 | 37 | 949.0 | |
| 20260505121236 | 18 | 0.0 | 0.0 | 0.00 | 0.00 | 0.00 | 37 | 949.0 | |
| 20260505120936 | 18 | 0.0 | 0.0 | 0.00 | 0.00 | 0.00 | 37 | 949.0 | |
| 20260505120636 | 18 | 0.0 | 0.0 | 0.00 | 0.00 | 0.00 | 37 | 949.0 | |
| 20260505120336 | 18 | 0.0 | 0.0 | 0.00 | 0.00 | 0.00 | 37 | 949.0 | |
| 20260505120036 | 18 | 0.0 | 0.0 | 0.00 | 0.00 | 0.00 | 37 | 949.0 | |
| 20260505115736 | 18 | 0.0 | 0.0 | 0.00 | 0.00 | 0.00 | 37 | 949.0 | |
| 20260505115136 | 18 | 0.0 | 0.0 | 0.00 | 0.00 | 0.00 | 39 | 949.0 | |
| 20260505114836 | 18 | 0.0 | 0.0 | 0.00 | 0.00 | 0.00 | 39 | 949.0 | |
| 20260505114536 | 17 | 0.0 | 0.0 | 0.00 | 0.00 | 0.00 | 39 | 949.0 | |
| 20260505114236 | 17 | 0.0 | 0.0 | 0.00 | 0.00 | 0.00 | 39 | 949.0 | |
| 20260505113936 | 17 | 0.0 | 0.0 | 0.00 | 0.00 | 0.00 | 39 | 949.0 | |
| 20260505113336 | 17 | 0.0 | 0.0 | 0.00 | 0.00 | 0.00 | 41 | 949.7 | |
| 20260505113035 | 18 | 0.0 | 0.0 | 0.00 | 0.00 | 0.00 | 40 | 949.0 | |
| 20260505112736 | 18 | 0.0 | 0.0 | 0.00 | 0.00 | 0.00 | 40 | 949.0 | |
| 20260505112436 | 18 | 0.0 | 0.0 | 0.00 | 0.00 | 0.00 | 40 | 949.0 | |
| 20260505112136 | 18 | 0.0 | 0.0 | 0.00 | 0.00 | 0.00 | 39 | 949.0 | |
| 20260505111535 | 19 | 0.0 | 0.0 | 0.00 | 0.00 | 0.00 | 39 | 949.7 | |
| 20260505111236 | 20 | 0.0 | 0.0 | 0.00 | 0.00 | 0.00 | 38 | 949.0 | |
| 20260505110935 | 20 | 0.0 | 0.0 | 0.00 | 0.00 | 0.00 | 38 | 949.0 | |
| 20260505110636 | 20 | 0.0 | 0.0 | 0.00 | 0.00 | 0.00 | 38 | 949.0 | |
| 20260505110336 | 20 | 0.0 | 0.0 | 0.00 | 0.00 | 0.00 | 38 | 949.0 | |
| 20260505101836 | 20 | 0.0 | 0.0 | 0.00 | 0.00 | 0.00 | 35 | 949.0 | |
| 20260505101536 | 20 | 0.0 | 0.0 | 0.00 | 0.00 | 0.00 | 35 | 949.0 | |
| 20260505101235 | 20 | 0.0 | 0.0 | 0.00 | 0.00 | 0.00 | 35 | 949.0 | |
| 20260505100936 | 22 | 0.0 | 0.0 | 0.00 | 0.00 | 0.00 | 32 | 949.0 | |
| 20260505100336 | 23 | 0.0 | 0.0 | 0.00 | 0.00 | 0.00 | 31 | 949.0 | |
| 20260505095736 | 25 | 0.0 | 0.0 | 0.00 | 0.00 | 0.00 | 31 | 949.0 | |
| 20260505095436 | 25 | 0.0 | 0.0 | 0.00 | 0.00 | 0.00 | 31 | 949.0 | |
| 20260505095136 | 25 | 0.0 | 0.0 | 0.00 | 0.00 | 0.00 | 31 | 949.0 | |
| 20260505094836 | 25 | 0.0 | 0.0 | 0.00 | 0.00 | 0.00 | 30 | 949.6 | |
| 20260505094536 | 25 | 0.0 | 0.0 | 0.00 | 0.00 | 0.00 | 30 | 949.0 | |
| 20260505094236 | 23 | 0.0 | 0.0 | 0.00 | 0.00 | 0.00 | 31 | 949.0 | |
| 20260505093936 | 25 | 0.0 | 0.0 | 0.00 | 0.00 | 0.00 | 30 | 949.0 | |
| 20260505093635 | 26 | 0.0 | 0.0 | 0.00 | 0.00 | 0.00 | 28 | 949.0 | |
| 20260505093336 | 30 | 0.0 | 0.0 | 0.00 | 0.00 | 0.00 | 25 | 949.0 | |
| 20260505093036 | 33 | 0.0 | 0.0 | 0.00 | 0.00 | 0.00 | 24 | 949.0 | |
| 20260505092736 | 31 | 0.0 | 0.0 | 0.00 | 0.00 | 0.00 | 26 | 949.0 | |
| 20260505092136 | 23 | 0.0 | 0.0 | 0.00 | 0.00 | 0.00 | 32 | 949.0 | |
| 20260505091836 | 23 | 0.0 | 0.0 | 0.00 | 0.00 | 0.00 | 32 | 949.0 | |
| 20260505091236 | 27 | 0.0 | 0.0 | 0.00 | 0.00 | 0.00 | 28 | 949.0 | |
| 20260505090936 | 31 | 0.0 | 0.0 | 0.00 | 0.00 | 0.00 | 25 | 949.0 | |
| 20260505090636 | 31 | 0.0 | 0.0 | 0.00 | 0.00 | 0.00 | 24 | 949.0 | |
| 20260505090336 | 33 | 0.0 | 0.0 | 0.00 | 0.00 | 0.00 | 23 | 949.0 | |
| 20260505090036 | 36 | 0.0 | 0.0 | 0.00 | 0.00 | 0.00 | 22 | 949.0 | |
| 20260505085736 | 37 | 0.0 | 0.0 | 0.00 | 0.00 | 0.00 | 21 | 949.0 | |
| 20260505085436 | 37 | 0.0 | 0.0 | 0.00 | 0.00 | 0.00 | 21 | 949.0 | |
| 20260505085135 | 36 | 0.0 | 0.0 | 0.00 | 0.00 | 0.00 | 22 | 949.0 | |
| 20260505084836 | 37 | 0.0 | 0.0 | 0.00 | 0.00 | 0.00 | 23 | 949.0 | |
| 20260505084236 | 36 | 0.0 | 0.0 | 0.00 | 0.00 | 0.00 | 23 | 949.0 | |
| 20260505082736 | 33 | 0.0 | 0.0 | 0.00 | 0.00 | 0.00 | 26 | 949.0 | |
| 20260505082436 | 32 | 0.0 | 0.0 | 0.00 | 0.00 | 0.00 | 27 | 949.0 | |
| 20260505082136 | 31 | 0.0 | 0.0 | 0.00 | 0.00 | 0.00 | 28 | 949.0 | |
| 20260505081535 | 26 | 0.0 | 0.0 | 0.00 | 0.00 | 0.00 | 31 | 949.0 | |
| 20260505080936 | 29 | 0.0 | 0.0 | 0.00 | 0.00 | 0.00 | 30 | 949.0 | |
| 20260505080635 | 26 | 0.0 | 0.0 | 0.00 | 0.00 | 0.00 | 33 | 949.0 | |
| 20260505080335 | 25 | 0.0 | 0.0 | 0.00 | 0.00 | 0.00 | 33 | 949.0 | |
| 20260505080036 | 27 | 0.0 | 0.0 | 0.00 | 0.00 | 0.00 | 32 | 949.0 | |
| 20260505075736 | 27 | 0.0 | 0.0 | 0.00 | 0.00 | 0.00 | 31 | 949.0 | |
| 20260505075435 | 28 | 0.0 | 0.0 | 0.00 | 0.00 | 0.00 | 31 | 949.0 | |
| 20260505075136 | 27 | 0.0 | 0.0 | 0.00 | 0.00 | 0.00 | 31 | 949.0 | |
| 20260505074836 | 27 | 0.0 | 0.0 | 0.00 | 0.00 | 0.00 | 31 | 949.0 | |
| 20260505074536 | 28 | 0.0 | 0.0 | 0.00 | 0.00 | 0.00 | 31 | 949.0 | |
| 20260505073936 | 32 | 0.0 | 0.0 | 0.00 | 0.00 | 0.00 | 29 | 949.0 | |
| 20260505073635 | 32 | 0.0 | 0.0 | 0.00 | 0.00 | 0.00 | 29 | 949.0 | |
| 20260505073336 | 31 | 0.0 | 0.0 | 0.00 | 0.00 | 0.00 | 30 | 949.0 | |
| 20260505073036 | 31 | 0.0 | 0.0 | 0.00 | 0.00 | 0.00 | 30 | 949.0 | |
| 20260505072736 | 30 | 0.0 | 0.0 | 0.00 | 0.00 | 0.00 | 31 | 949.0 | |
| 20260505072436 | 28 | 0.0 | 0.0 | 0.00 | 0.00 | 0.00 | 34 | 949.0 | |
| 20260505072136 | 28 | 0.0 | 0.0 | 0.00 | 0.00 | 0.00 | 35 | 949.0 | |
| 20260505071536 | 24 | 0.0 | 0.0 | 0.00 | 0.00 | 0.00 | 41 | 949.0 | |
| 20260505070635 | 16 | 0.0 | 0.0 | 0.00 | 0.00 | 0.00 | 55 | 949.0 | |
| 20260505070336 | 15 | 0.0 | 0.0 | 0.00 | 0.00 | 0.00 | 59 | 950.0 | |
| 20260505065735 | 12 | 0.0 | 0.0 | 0.00 | 0.00 | 0.00 | 64 | 950.0 | |
| 20260505065436 | 12 | 0.0 | 0.0 | 0.00 | 0.00 | 0.00 | 66 | 950.0 | |
| 20260505065136 | 12 | 0.0 | 0.0 | 0.00 | 0.00 | 0.00 | 66 | 950.0 | |
| 20260505064836 | 11 | 0.0 | 0.0 | 0.00 | 0.00 | 0.00 | 68 | 950.0 | |
| 20260505064536 | 11 | 0.0 | 0.0 | 0.00 | 0.00 | 0.00 | 68 | 950.0 | |
| 20260505064236 | 11 | 0.0 | 0.0 | 0.00 | 0.00 | 0.00 | 68 | 950.0 | |
| 20260505063635 | 11 | 0.0 | 0.0 | 0.00 | 0.00 | 0.00 | 69 | 950.0 | |
| 20260505063336 | 11 | 0.0 | 0.0 | 0.00 | 0.00 | 0.00 | 69 | 950.0 | |
| 20260505063036 | 11 | 0.0 | 0.0 | 0.00 | 0.00 | 0.00 | 69 | 950.0 | |
| 20260505062436 | 10 | 0.0 | 0.0 | 0.00 | 0.00 | 0.00 | 70 | 950.0 | |
| 20260505061836 | 10 | 0.0 | 0.0 | 0.00 | 0.00 | 0.00 | 70 | 950.0 | |
| 20260505061535 | 10 | 0.0 | 0.0 | 0.00 | 0.00 | 0.00 | 70 | 950.0 | |
| 20260505061236 | 10 | 0.0 | 0.0 | 0.00 | 0.00 | 0.00 | 70 | 950.0 | |
| 20260505060936 | 10 | 0.0 | 0.0 | 0.00 | 0.00 | 0.00 | 70 | 950.0 | |
| 20260505060635 | 10 | 0.0 | 0.0 | 0.00 | 0.00 | 0.00 | 72 | 950.0 | |
| 20260505060336 | 10 | 0.0 | 0.0 | 0.00 | 0.00 | 0.00 | 72 | 950.0 | |
| 20260505060036 | 10 | 0.0 | 0.0 | 0.00 | 0.00 | 0.00 | 72 | 950.0 | |
| 20260505055736 | 10 | 0.0 | 0.0 | 0.00 | 0.00 | 0.00 | 72 | 950.0 | |
| 20260505055436 | 10 | 0.0 | 0.0 | 0.00 | 0.00 | 0.00 | 72 | 950.0 | |
| 20260505055136 | 10 | 0.0 | 0.0 | 0.00 | 0.00 | 0.00 | 72 | 950.0 | |
| 20260505054836 | 9 | 0.0 | 0.0 | 0.00 | 0.00 | 0.00 | 73 | 950.0 | |
| 20260505054536 | 9 | 0.0 | 0.0 | 0.00 | 0.00 | 0.00 | 73 | 950.0 | |
| 20260505054235 | 9 | 0.0 | 0.0 | 0.00 | 0.00 | 0.00 | 73 | 950.0 | |
| 20260505053936 | 9 | 0.0 | 0.0 | 0.00 | 0.00 | 0.00 | 73 | 950.0 | |
| 20260505053335 | 9 | 0.0 | 0.0 | 0.00 | 0.00 | 0.00 | 75 | 950.0 | |
| 20260505052435 | 9 | 0.0 | 0.0 | 0.00 | 0.00 | 0.00 | 75 | 950.0 | |
| 20260505052136 | 9 | 0.0 | 0.0 | 0.00 | 0.00 | 0.00 | 75 | 950.0 | |
| 20260505051836 | 9 | 0.0 | 0.0 | 0.00 | 0.00 | 0.00 | 75 | 950.0 | |
| 20260505051536 | 9 | 0.0 | 0.0 | 0.00 | 0.00 | 0.00 | 75 | 950.0 | |
| 20260505050936 | 9 | 0.0 | 0.0 | 0.00 | 0.00 | 0.00 | 75 | 950.0 | |
| 20260505050636 | 9 | 0.0 | 0.0 | 0.00 | 0.00 | 0.00 | 75 | 950.0 | |
| 20260505050336 | 9 | 0.0 | 0.0 | 0.00 | 0.00 | 0.00 | 75 | 950.0 | |
| 20260505041536 | 8 | 0.0 | 0.0 | 0.00 | 0.00 | 0.00 | 75 | 949.0 | |
| 20260505041236 | 9 | 0.0 | 0.0 | 0.00 | 0.00 | 0.00 | 74 | 950.2 | |
| 20260505040936 | 9 | 0.0 | 0.0 | 0.00 | 0.00 | 0.00 | 74 | 950.2 | |
| 20260505040335 | 9 | 0.0 | 0.0 | 0.00 | 0.00 | 0.00 | 74 | 950.2 | |
| 20260505040035 | 9 | 0.0 | 0.0 | 0.00 | 0.00 | 0.00 | 74 | 950.2 | |
| 20260505035435 | 9 | 0.0 | 0.0 | 0.00 | 0.00 | 0.00 | 74 | 950.2 | |
| 20260505035136 | 9 | 0.0 | 0.0 | 0.00 | 0.00 | 0.00 | 74 | 950.2 | |
| 20260505034836 | 9 | 0.0 | 0.0 | 0.00 | 0.00 | 0.00 | 74 | 950.2 | |
| 20260505034536 | 9 | 0.0 | 0.0 | 0.00 | 0.00 | 0.00 | 74 | 950.2 | |
| 20260505034236 | 9 | 0.0 | 0.0 | 0.00 | 0.00 | 0.00 | 74 | 950.2 | |
| 20260505033636 | 9 | 0.0 | 0.0 | 0.00 | 0.00 | 0.00 | 74 | 950.0 | |
| 20260505033335 | 9 | 0.0 | 0.0 | 0.00 | 0.00 | 0.00 | 74 | 950.0 | |
| 20260505032436 | 9 | 0.0 | 0.0 | 0.00 | 0.00 | 0.00 | 74 | 950.0 | |
| 20260505032135 | 9 | 0.0 | 0.0 | 0.00 | 0.00 | 0.00 | 74 | 950.0 | |
| 20260505031836 | 9 | 0.0 | 0.0 | 0.00 | 0.00 | 0.00 | 74 | 950.0 | |
| 20260505031536 | 9 | 0.0 | 0.0 | 0.00 | 0.00 | 0.00 | 74 | 950.0 | |
| 20260505030636 | 9 | 0.0 | 0.0 | 0.00 | 0.00 | 0.00 | 74 | 950.0 | |
| 20260505030336 | 9 | 0.0 | 0.0 | 0.00 | 0.00 | 0.00 | 74 | 950.0 | |
| 20260505025736 | 9 | 0.0 | 0.0 | 0.00 | 0.00 | 0.00 | 74 | 950.1 | |
| 20260505025436 | 9 | 0.0 | 0.0 | 0.00 | 0.00 | 0.00 | 74 | 950.1 | |
| 20260505025135 | 9 | 0.0 | 0.0 | 0.00 | 0.00 | 0.00 | 74 | 950.1 | |
| 20260505024835 | 9 | 0.0 | 0.0 | 0.00 | 0.00 | 0.00 | 74 | 950.1 | |
| 20260505024536 | 9 | 0.0 | 0.0 | 0.00 | 0.00 | 0.00 | 74 | 950.1 | |
| 20260505024236 | 9 | 0.0 | 0.0 | 0.00 | 0.00 | 0.00 | 74 | 950.1 | |
| 20260505023936 | 9 | 0.0 | 0.0 | 0.00 | 0.00 | 0.00 | 73 | 950.0 | |
| 20260505023336 | 9 | 0.0 | 0.0 | 0.00 | 0.00 | 0.00 | 73 | 950.0 | |
| 20260505023036 | 9 | 0.0 | 0.0 | 0.00 | 0.00 | 0.00 | 73 | 950.0 | |
| 20260505022735 | 9 | 0.0 | 0.0 | 0.00 | 0.00 | 0.00 | 73 | 950.0 | |
| 20260505022436 | 9 | 0.0 | 0.0 | 0.00 | 0.00 | 0.00 | 73 | 950.0 | |
| 20260505022136 | 9 | 0.0 | 0.0 | 0.00 | 0.00 | 0.00 | 73 | 950.0 | |
| 20260505021836 | 9 | 0.0 | 0.0 | 0.00 | 0.00 | 0.00 | 73 | 950.0 | |
| 20260505021536 | 9 | 0.0 | 0.0 | 0.00 | 0.00 | 0.00 | 73 | 950.0 | |
| 20260505021235 | 9 | 0.0 | 0.0 | 0.00 | 0.00 | 0.00 | 73 | 950.0 | |
| 20260505020935 | 9 | 0.0 | 0.0 | 0.00 | 0.00 | 0.00 | 73 | 950.0 | |
| 20260505020636 | 9 | 0.0 | 0.0 | 0.00 | 0.00 | 0.00 | 73 | 950.0 | |
| 20260505020336 | 10 | 0.0 | 0.0 | 0.00 | 0.00 | 0.00 | 73 | 950.3 | |
| 20260505020036 | 10 | 0.0 | 0.0 | 0.00 | 0.00 | 0.00 | 73 | 950.3 | |
| 20260505015736 | 10 | 0.0 | 0.0 | 0.00 | 0.00 | 0.00 | 73 | 950.3 | |
| 20260505015436 | 10 | 0.0 | 0.0 | 0.00 | 0.00 | 0.00 | 73 | 950.3 | |
| 20260505015136 | 10 | 0.0 | 0.0 | 0.00 | 0.00 | 0.00 | 73 | 950.3 | |
| 20260505014836 | 10 | 0.0 | 0.0 | 0.00 | 0.00 | 0.00 | 73 | 950.3 | |
| 20260505014536 | 10 | 0.0 | 0.0 | 0.00 | 0.00 | 0.00 | 72 | 950.4 | |
| 20260505013936 | 10 | 0.0 | 0.0 | 0.00 | 0.00 | 0.00 | 72 | 950.4 | |
| 20260505013636 | 10 | 0.0 | 0.0 | 0.00 | 0.00 | 0.00 | 72 | 950.4 | |
| 20260505013335 | 10 | 0.0 | 0.0 | 0.00 | 0.00 | 0.00 | 72 | 950.4 | |
| 20260505013036 | 10 | 0.0 | 0.0 | 0.00 | 0.00 | 0.00 | 72 | 950.4 | |
| 20260505012736 | 10 | 0.0 | 0.0 | 0.00 | 0.00 | 0.00 | 72 | 950.4 | |
| 20260505012436 | 10 | 0.0 | 0.0 | 0.00 | 0.00 | 0.00 | 72 | 950.4 | |
| 20260505012136 | 10 | 0.0 | 0.0 | 0.00 | 0.00 | 0.00 | 72 | 950.4 | |
| 20260505011836 | 10 | 0.0 | 0.0 | 0.00 | 0.00 | 0.00 | 72 | 950.4 | |
| 20260505011536 | 10 | 0.0 | 0.0 | 0.00 | 0.00 | 0.00 | 72 | 950.4 | |
| 20260505011235 | 10 | 0.0 | 0.0 | 0.00 | 0.00 | 0.00 | 72 | 950.4 | |
| 20260505010935 | 10 | 0.0 | 0.0 | 0.00 | 0.00 | 0.00 | 72 | 950.4 | |
| 20260505010636 | 10 | 0.0 | 0.0 | 0.00 | 0.00 | 0.00 | 72 | 950.4 | |
| 20260505010336 | 10 | 0.0 | 0.0 | 0.00 | 0.00 | 0.00 | 72 | 950.4 | |
| 20260505010035 | 10 | 0.0 | 0.0 | 0.00 | 0.00 | 0.00 | 72 | 950.4 | |
| 20260505005736 | 10 | 0.0 | 0.0 | 0.00 | 0.00 | 0.00 | 72 | 950.4 | |
| 20260505005436 | 10 | 0.0 | 0.0 | 0.00 | 0.00 | 0.00 | 72 | 950.0 | |
| 20260505005135 | 10 | 0.0 | 0.0 | 0.00 | 0.00 | 0.00 | 69 | 950.0 | |
| 20260505004835 | 10 | 0.0 | 0.0 | 0.00 | 0.00 | 0.00 | 69 | 950.0 | |
| 20260505004536 | 10 | 0.0 | 0.0 | 0.00 | 0.00 | 0.00 | 69 | 950.0 | |
| 20260505003935 | 10 | 0.0 | 0.0 | 0.00 | 0.00 | 0.00 | 69 | 950.0 | |
| 20260505003635 | 10 | 0.0 | 0.0 | 0.00 | 0.00 | 0.00 | 69 | 950.0 | |
| 20260505003036 | 10 | 0.0 | 0.0 | 0.00 | 0.00 | 0.00 | 69 | 950.0 | |
| 20260505002736 | 10 | 0.0 | 0.0 | 0.00 | 0.00 | 0.00 | 69 | 950.0 | |
| 20260505002436 | 10 | 0.0 | 0.0 | 0.00 | 0.00 | 0.00 | 69 | 950.0 | |
| 20260505002136 | 10 | 0.0 | 0.0 | 0.00 | 0.00 | 0.00 | 69 | 950.0 | |
| 20260505001536 | 10 | 0.0 | 0.0 | 0.00 | 0.00 | 0.00 | 69 | 950.0 | |
| 20260505000035 | 11 | 0.0 | 0.0 | 0.00 | 0.00 | 0.00 | 67 | 950.0 | |
| 20260504235736 | 11 | 0.0 | 0.0 | 0.00 | 0.00 | 0.00 | 67 | 950.0 | |
| 20260504235436 | 11 | 0.0 | 0.0 | 0.00 | 0.00 | 0.00 | 67 | 950.0 | |
| 20260504235136 | 11 | 0.0 | 0.0 | 0.00 | 0.00 | 0.00 | 67 | 950.0 | |
| 20260504234835 | 11 | 0.0 | 0.0 | 0.00 | 0.00 | 0.00 | 67 | 950.0 | |
| 20260504234535 | 11 | 0.0 | 0.0 | 0.00 | 0.00 | 0.00 | 67 | 950.0 | |
| 20260504234236 | 11 | 0.0 | 0.0 | 0.00 | 0.00 | 0.00 | 67 | 950.0 | |
| 20260504233936 | 11 | 0.0 | 0.0 | 0.00 | 0.00 | 0.00 | 67 | 950.0 | |
| 20260504233635 | 11 | 0.0 | 0.0 | 0.00 | 0.00 | 0.00 | 67 | 950.0 | |
| 20260504233335 | 11 | 0.0 | 0.0 | 0.00 | 0.00 | 0.00 | 67 | 950.4 | |
| 20260504233035 | 11 | 0.0 | 0.0 | 0.00 | 0.00 | 0.00 | 67 | 950.4 | |
| 20260504232735 | 11 | 0.0 | 0.0 | 0.00 | 0.00 | 0.00 | 67 | 950.4 | |
| 20260504232435 | 11 | 0.0 | 0.0 | 0.00 | 0.00 | 0.00 | 67 | 950.4 | |
| 20260504231835 | 11 | 0.0 | 0.0 | 0.00 | 0.00 | 0.00 | 67 | 950.4 | |
| 20260504231536 | 11 | 0.0 | 0.0 | 0.00 | 0.00 | 0.00 | 67 | 950.4 | |
| 20260504231235 | 11 | 0.0 | 0.0 | 0.00 | 0.00 | 0.00 | 67 | 950.4 | |
| 20260504230935 | 11 | 0.0 | 0.0 | 0.00 | 0.00 | 0.00 | 67 | 950.4 | |
| 20260504230336 | 11 | 0.0 | 0.0 | 0.00 | 0.00 | 0.00 | 66 | 950.0 | |
| 20260504230035 | 11 | 0.0 | 0.0 | 0.00 | 0.00 | 0.00 | 66 | 950.0 | |
| 20260504225736 | 11 | 0.0 | 0.0 | 0.00 | 0.00 | 0.00 | 66 | 950.0 | |
| 20260504225135 | 11 | 0.0 | 0.0 | 0.00 | 0.00 | 0.00 | 66 | 950.0 | |
| 20260504224836 | 11 | 0.0 | 0.0 | 0.00 | 0.00 | 0.00 | 66 | 950.0 | |
| 20260504224536 | 11 | 0.0 | 0.0 | 0.00 | 0.00 | 0.00 | 66 | 950.0 | |
| 20260504224238 | 11 | 0.0 | 0.0 | 0.00 | 0.00 | 0.00 | 66 | 950.0 | |
| 20260504223642 | 11 | 0.0 | 0.0 | 0.00 | 0.00 | 0.00 | 66 | 950.0 | |
| 20260504223341 | 11 | 0.0 | 0.0 | 0.00 | 0.00 | 0.00 | 66 | 950.0 | |
| 20260504223038 | 11 | 0.0 | 0.0 | 0.00 | 0.00 | 0.00 | 66 | 950.0 | |
| 20260504222742 | 11 | 0.0 | 0.0 | 0.00 | 0.00 | 0.00 | 66 | 950.0 | |
| 20260504222442 | 11 | 0.0 | 0.0 | 0.00 | 0.00 | 0.00 | 66 | 950.4 | |
| 20260504222136 | 11 | 0.0 | 0.0 | 0.00 | 0.00 | 0.00 | 66 | 950.4 | |
| 20260504221835 | 11 | 0.0 | 0.0 | 0.00 | 0.00 | 0.00 | 66 | 950.4 | |
| 20260504221535 | 11 | 0.0 | 0.0 | 0.00 | 0.00 | 0.00 | 66 | 950.4 | |
| 20260504221235 | 11 | 0.0 | 0.0 | 0.00 | 0.00 | 0.00 | 66 | 950.4 | |
| 20260504220635 | 12 | 0.0 | 0.0 | 0.00 | 0.00 | 0.00 | 64 | 950.0 | |
| 20260504220336 | 12 | 0.0 | 0.0 | 0.00 | 0.00 | 0.00 | 64 | 950.0 | |
| 20260504215435 | 12 | 0.0 | 0.0 | 0.00 | 0.00 | 0.00 | 63 | 950.0 | |
| 20260504215136 | 12 | 0.0 | 0.0 | 0.00 | 0.00 | 0.00 | 63 | 950.0 | |
| 20260504214836 | 12 | 0.0 | 0.0 | 0.00 | 0.00 | 0.00 | 63 | 950.0 | |
| 20260504214536 | 12 | 0.0 | 0.0 | 0.00 | 0.00 | 0.00 | 63 | 950.0 | |
| 20260504214236 | 12 | 0.0 | 0.0 | 0.00 | 0.00 | 0.00 | 63 | 950.0 | |
| 20260504213936 | 12 | 0.0 | 0.0 | 0.00 | 0.00 | 0.00 | 63 | 950.0 | |
| 20260504213636 | 12 | 0.0 | 0.0 | 0.00 | 0.00 | 0.00 | 63 | 950.0 | |
| 20260504213335 | 12 | 0.0 | 0.0 | 0.00 | 0.00 | 0.00 | 63 | 950.0 | |
| 20260504213036 | 12 | 0.0 | 0.0 | 0.00 | 0.00 | 0.00 | 63 | 950.0 | |
| 20260504212736 | 12 | 0.0 | 0.0 | 0.00 | 0.00 | 0.00 | 63 | 950.0 | |
| 20260504212436 | 12 | 0.0 | 0.0 | 0.00 | 0.00 | 0.00 | 62 | 950.2 | |
| 20260504212136 | 12 | 0.0 | 0.0 | 0.00 | 0.00 | 0.00 | 62 | 950.2 | |
| 20260504211536 | 12 | 0.0 | 0.0 | 0.00 | 0.00 | 0.00 | 62 | 950.0 | |
| 20260504211236 | 12 | 0.0 | 0.0 | 0.00 | 0.00 | 0.00 | 62 | 950.0 | |
| 20260504210935 | 13 | 0.0 | 0.0 | 0.00 | 0.00 | 0.00 | 59 | 949.0 | |
| 20260504210636 | 13 | 0.0 | 0.0 | 0.00 | 0.00 | 0.00 | 59 | 949.0 | |
| 20260504210336 | 13 | 0.0 | 0.0 | 0.00 | 0.00 | 0.00 | 59 | 949.0 | |
| 20260504210036 | 13 | 0.0 | 0.0 | 0.00 | 0.00 | 0.00 | 59 | 949.0 | |
| 20260504205736 | 13 | 0.0 | 0.0 | 0.00 | 0.00 | 0.00 | 59 | 949.0 | |
| 20260504205435 | 13 | 0.0 | 0.0 | 0.00 | 0.00 | 0.00 | 57 | 949.0 | |
| 20260504204836 | 13 | 0.0 | 0.0 | 0.00 | 0.00 | 0.00 | 57 | 949.0 | |
| 20260504204536 | 13 | 0.0 | 0.0 | 0.00 | 0.00 | 0.00 | 53 | 949.0 | |
| 20260504204236 | 13 | 0.0 | 0.0 | 0.00 | 0.00 | 0.00 | 53 | 949.0 | |
| 20260504203636 | 13 | 0.0 | 0.0 | 0.00 | 0.00 | 0.00 | 55 | 949.0 | |
| 20260504203336 | 13 | 0.0 | 0.0 | 0.00 | 0.00 | 0.00 | 55 | 949.0 | |
| 20260504202736 | 13 | 0.0 | 0.0 | 0.00 | 0.00 | 0.00 | 55 | 949.0 | |
| 20260504202435 | 13 | 0.0 | 0.0 | 0.00 | 0.00 | 0.00 | 54 | 948.0 | |
| 20260504202136 | 13 | 0.0 | 0.0 | 0.00 | 0.00 | 0.00 | 54 | 948.0 | |
| 20260504201836 | 13 | 0.0 | 0.0 | 0.00 | 0.00 | 0.00 | 54 | 948.0 | |
| 20260504201536 | 13 | 0.0 | 0.0 | 0.00 | 0.00 | 0.00 | 54 | 948.0 | |
| 20260504201236 | 13 | 0.0 | 0.0 | 0.00 | 0.00 | 0.00 | 54 | 948.0 | |
| 20260504200936 | 13 | 0.0 | 0.0 | 0.00 | 0.00 | 0.00 | 54 | 948.0 | |
| 20260504200636 | 13 | 0.0 | 0.0 | 0.00 | 0.00 | 0.00 | 61 | 948.0 | |
| 20260504200336 | 13 | 0.0 | 0.0 | 0.00 | 0.00 | 0.00 | 55 | 948.0 | |
| 20260504200035 | 13 | 0.0 | 0.0 | 0.00 | 0.00 | 0.00 | 55 | 948.0 | |
| 20260504195736 | 14 | 0.0 | 0.0 | 0.00 | 0.00 | 0.00 | 55 | 948.0 | |
| 20260504195436 | 14 | 0.0 | 0.0 | 0.00 | 0.00 | 0.00 | 55 | 948.0 | |
| 20260504195136 | 14 | 0.0 | 0.0 | 0.00 | 0.00 | 0.00 | 55 | 948.0 | |
| 20260504194835 | 14 | 0.0 | 0.0 | 0.00 | 0.00 | 0.00 | 55 | 948.0 | |
| 20260504194536 | 14 | 0.0 | 0.0 | 0.00 | 0.00 | 0.00 | 55 | 948.0 | |
| 20260504194236 | 14 | 0.0 | 0.0 | 0.00 | 0.00 | 0.00 | 55 | 948.0 | |
| 20260504193936 | 14 | 0.0 | 0.0 | 0.00 | 0.00 | 0.00 | 55 | 948.0 | |
| 20260504193636 | 14 | 0.0 | 0.0 | 0.00 | 0.00 | 0.00 | 55 | 948.6 | |
| 20260504193035 | 14 | 0.0 | 0.0 | 0.00 | 0.00 | 0.00 | 54 | 948.0 | |
| 20260504192735 | 14 | 0.0 | 0.0 | 0.00 | 0.00 | 0.00 | 54 | 948.0 | |
| 20260504192135 | 15 | 0.0 | 0.0 | 0.00 | 0.00 | 0.00 | 51 | 948.0 | |
| 20260504191835 | 15 | 0.0 | 0.0 | 0.00 | 0.00 | 0.00 | 51 | 948.0 | |
| 20260504190936 | 15 | 0.0 | 0.0 | 0.00 | 0.00 | 0.00 | 49 | 947.0 | |
| 20260504190636 | 15 | 0.0 | 0.0 | 0.00 | 0.00 | 0.00 | 49 | 947.0 | |
| 20260504190336 | 15 | 0.0 | 0.0 | 0.00 | 0.00 | 0.00 | 49 | 947.0 | |
| 20260504190035 | 15 | 0.0 | 0.0 | 0.00 | 0.00 | 0.00 | 49 | 947.0 | |
| 20260504185736 | 15 | 0.0 | 0.0 | 0.00 | 0.00 | 0.00 | 47 | 947.8 | |
| 20260504185436 | 15 | 0.0 | 0.0 | 0.00 | 0.00 | 0.00 | 47 | 947.8 | |
| 20260504185135 | 15 | 0.0 | 0.0 | 0.00 | 0.00 | 0.00 | 47 | 947.8 | |
| 20260504184836 | 15 | 0.0 | 0.0 | 0.00 | 0.00 | 0.00 | 47 | 947.8 | |
| 20260504184536 | 15 | 0.0 | 0.0 | 0.00 | 0.00 | 0.00 | 47 | 947.8 | |
| 20260504184235 | 15 | 0.0 | 0.0 | 0.00 | 0.00 | 0.00 | 47 | 947.8 | |
| 20260504183936 | 16 | 0.0 | 0.0 | 0.00 | 0.00 | 0.00 | 46 | 947.0 | |
| 20260504183636 | 16 | 0.0 | 0.0 | 0.00 | 0.00 | 0.00 | 46 | 947.0 | |
| 20260504183336 | 16 | 0.0 | 0.0 | 0.00 | 0.00 | 0.00 | 46 | 947.0 | |
| 20260504183036 | 16 | 0.0 | 0.0 | 0.00 | 0.00 | 0.00 | 46 | 947.0 | |
| 20260504182736 | 16 | 0.0 | 0.0 | 0.00 | 0.00 | 0.00 | 46 | 947.0 | |
| 20260504182436 | 16 | 0.0 | 0.0 | 0.00 | 0.00 | 0.00 | 46 | 947.0 | |
| 20260504182136 | 16 | 0.0 | 0.0 | 0.00 | 0.00 | 0.00 | 46 | 947.0 | |
| 20260504181836 | 16 | 0.0 | 0.0 | 0.00 | 0.00 | 0.00 | 46 | 947.0 | |
| 20260504181536 | 16 | 0.0 | 0.0 | 0.00 | 0.00 | 0.00 | 46 | 947.0 | |
| 20260504181236 | 16 | 0.0 | 0.0 | 0.00 | 0.00 | 0.00 | 45 | 947.5 | |
| 20260504180935 | 16 | 0.0 | 0.0 | 0.00 | 0.00 | 0.00 | 45 | 947.5 | |
| 20260504180635 | 16 | 0.0 | 0.0 | 0.00 | 0.00 | 0.00 | 45 | 947.5 | |
| 20260504180336 | 16 | 0.0 | 0.0 | 0.00 | 0.00 | 0.00 | 45 | 947.5 | |
| 20260504180036 | 16 | 0.0 | 0.0 | 0.00 | 0.00 | 0.00 | 45 | 947.5 | |
| 20260504175436 | 16 | 0.0 | 0.0 | 0.00 | 0.00 | 0.00 | 45 | 947.5 | |
| 20260504174836 | 16 | 0.0 | 0.0 | 0.00 | 0.00 | 0.00 | 45 | 947.5 | |
| 20260504174236 | 16 | 0.0 | 0.0 | 0.00 | 0.00 | 0.00 | 44 | 947.0 | |
| 20260504173936 | 17 | 0.0 | 0.0 | 0.00 | 0.00 | 0.00 | 44 | 947.0 | |
| 20260504173636 | 17 | 0.0 | 0.0 | 0.00 | 0.00 | 0.00 | 44 | 947.0 | |
| 20260504173335 | 17 | 0.0 | 0.0 | 0.00 | 0.00 | 0.00 | 44 | 947.0 | |
| 20260504173036 | 17 | 0.0 | 0.0 | 0.00 | 0.00 | 0.00 | 44 | 947.0 | |
| 20260504172735 | 17 | 0.0 | 0.0 | 0.00 | 0.00 | 0.00 | 44 | 947.0 | |
| 20260504171236 | 17 | 0.0 | 0.0 | 0.00 | 0.00 | 0.00 | 43 | 947.0 | |
| 20260504170635 | 17 | 0.0 | 0.0 | 0.00 | 0.00 | 0.00 | 41 | 947.0 | |
| 20260504170335 | 17 | 0.0 | 0.0 | 0.00 | 0.00 | 0.00 | 41 | 947.0 |